2P Encke 2010 08 06.5103 0.336152 0.848265 186.5242 334.5718 11.7843 11.5 6.0 7P Pons-Winnecke 2008 09 26.5521 1.253262 0.634716 172.3079 93.4195 22.3092 10.0 6.0 8P Tuttle 2008 01 26.7800 1.028098 0.819471 207.5121 270.3486 54.9708 8.0 8.0 9P Tempel 2011 01 12.3465 1.509915 0.516732 178.9252 68.9190 10.5226 5.5 10.0 10P Tempel 2010 07 04.9010 1.422778 0.536251 195.6532 117.8262 12.0225 5.0 10.0 14P Wolf 2009 02 27.3705 2.724434 0.357832 159.0240 202.1176 27.9437 5.5 12.0 17P Holmes 2007 05 05.0147 2.053357 0.432872 24.3499 326.8536 19.1145 10.0 6.0 22P Kopff 2009 05 25.3704 1.577199 0.544352 162.7883 120.8888 4.7235 3.0 10.4 24P Schaumasse 2009 08 09.6197 1.213888 0.703580 57.9951 79.7161 11.7293 6.5 14.0 29P Schwassmann-Wachmann 2004 07 09.1482 5.718738 0.045138 48.7702 312.6345 9.3930 4.0 4.0 30P Reinmuth 2010 04 19.5581 1.884062 0.500939 13.2123 119.7544 8.1224 9.5 6.0 31P Schwassmann-Wachmann 2010 09 29.8687 3.424174 0.192420 17.9936 114.1900 4.5473 5.0 8.0 36P Whipple 2011 12 31.3156 3.087407 0.258728 201.8816 182.3954 9.9358 8.5 6.0 43P Wolf-Harrington 2010 07 01.7166 1.357702 0.594627 191.4419 249.9078 15.9650 8.0 6.0 44P Reinmuth 2008 02 18.5053 2.107590 0.428481 58.1605 286.6006 5.9030 8.3 6.0 47P Ashbrook-Jackson 2009 02 01.1041 2.799463 0.319016 357.7233 356.9821 13.0530 1.0 11.2 49P Arend-Rigaux 2011 10 19.0545 1.418772 0.601105 332.9242 118.9407 19.0872 11.3 4.4 54P de Vico-Swift-NEAT 2009 11 28.4918 2.171998 0.426595 1.9061 358.8532 6.0685 10.0 6.0 59P Kearns-Kwee 2009 03 07.6452 2.355394 0.475342 127.5261 313.0354 9.3405 7.0 6.0 61P Shajn-Schaldach 2008 09 06.2315 2.108221 0.426850 221.6727 163.1087 6.0095 6.0 10.0 64P Swift-Gehrels 2009 06 14.3689 1.377063 0.689664 96.3147 300.7432 8.9510 8.5 12.0 65P Gunn 2010 03 02.1224 2.440370 0.319389 196.6319 68.3568 10.3865 5.0 6.0 67P Churyumov-Gerasimenko 2009 02 28.3819 1.246286 0.640313 12.7019 50.1884 7.0413 11.0 4.0 68P Klemola 2009 01 20.9726 1.759371 0.640416 153.9915 175.3268 11.1446 10.0 4.0 74P Smirnova-Chernykh 2009 07 29.9266 3.557569 0.147450 87.1876 77.0919 6.6476 5.0 6.0 77P Longmore 2009 07 07.8599 2.310389 0.357955 196.6995 14.9174 24.3990 7.0 8.0 81P Wild 2010 02 22.7042 1.598052 0.537400 41.7948 136.0974 3.2374 7.0 6.0 82P Gehrels 2010 01 12.0814 3.633375 0.122228 226.2674 239.5100 1.1261 5.0 8.0 85P Boethin 2008 12 16.4100 1.147325 0.775467 53.5895 343.4491 4.2170 6.5 8.0 88P Howell 2009 10 12.4630 1.363448 0.562066 235.9600 56.7529 4.3817 11.0 6.0 89P Russell 2009 08 17.1126 2.279762 0.399834 249.3256 42.3614 12.0321 11.5 6.0 94P Russell 2010 03 29.7679 2.240250 0.363089 92.8489 70.9180 6.1823 9.0 6.0 97P Metcalf-Brewington 2011 08 22.5545 2.588399 0.459569 228.6788 185.2536 17.8773 5.5 6.0 99P Kowal 2007 01 28.6835 4.739022 0.229293 174.5096 28.2166 4.3323 4.5 6.0 100P Hartley 2009 12 06.1485 1.982408 0.418600 181.7084 37.8449 25.6545 9.0 8.0 104P Kowal 2010 05 04.6237 1.179682 0.638286 200.5426 235.5202 10.2678 12.5 4.0 110P Hartley 2008 02 03.0771 2.486213 0.312608 167.6596 287.7292 11.6797 1.0 12.0 116P Wild 2009 07 18.8385 2.174943 0.374438 173.5826 21.0339 3.6130 2.5 10.0 117P Helin-Roman-Alu 2005 12 20.8060 3.044608 0.255093 223.0283 58.9311 8.7015 2.5 8.0 118P Shoemaker-Levy 2010 01 02.3110 1.983924 0.427348 302.1445 151.8072 8.5094 12.0 4.0 119P Parker-Hartley 2014 04 03.5062 3.037362 0.290839 181.0851 244.0741 5.1920 3.5 8.0 123P West-Hartley 2011 07 04.5452 2.130191 0.447866 102.7883 46.6017 15.3544 4.0 10.0 124P Mrkos 2008 04 27.6509 1.471475 0.542413 181.7612 1.1203 31.4879 13.5 2.8 126P IRAS 2010 02 22.6753 1.713392 0.696607 356.7343 357.7611 45.8294 6.0 8.0 127P Holt-Olmstead 2009 10 21.3715 2.195719 0.362309 6.5425 13.6846 14.3218 11.0 6.0 128P Shoemaker-Holt 2007 06 13.4842 3.064743 0.320546 210.3538 214.3648 4.3585 8.5 4.0 129P Shoemaker-Levy 2013 09 17.4011 2.858002 0.259455 291.6404 217.8195 1.7746 11.0 4.0 136P Mueller 2007 10 22.9726 2.961880 0.293540 225.0169 137.5519 9.4274 11.0 4.0 137P Shoemaker-Levy 2009 05 13.6033 1.915448 0.574556 140.8308 233.1192 4.8534 11.0 4.0 139P Vaisala-Oterma 2008 04 19.7475 3.402684 0.247264 165.5955 242.4255 2.3287 9.5 4.0 142P Ge-Wang 2010 05 30.7763 2.487715 0.499820 175.7984 176.5253 12.3029 8.5 6.0 143P Kowal-Mrkos 2009 06 12.1977 2.538264 0.409605 320.7641 245.3670 4.6902 13.5 2.0 144P Kushida 2009 01 26.8403 1.438559 0.627807 216.0788 245.5492 4.1098 8.5 8.0 145P Shoemaker-Levy 2009 03 26.6600 1.891468 0.542322 10.1635 26.8972 11.2990 13.5 4.0 149P Mueller 2010 02 19.2176 2.650924 0.388534 43.7697 145.2659 29.7350 8.0 8.0 150P LONEOS 2008 11 25.9496 1.768067 0.545578 245.6740 272.4280 18.4994 13.5 4.0 152P Helin-Lawrence 2012 07 09.4754 3.112708 0.308032 163.9090 91.9528 9.8689 11.5 4.0 157P Tritton 2010 02 20.5347 1.360164 0.601074 148.7460 300.1078 7.2775 10.0 4.0 158P Kowal-LINEAR 2012 09 15.4832 4.580351 0.029450 231.5503 137.3089 7.9085 9.0 4.0 162P Siding Spring 2010 03 08.4217 1.233063 0.596119 356.3052 31.2412 27.8159 12.0 4.0 164P Christensen 2011 06 02.5373 1.673924 0.541333 325.9236 88.3628 16.2666 11.0 4.0 166P NEAT 2002 05 15.8310 8.545933 0.382443 321.5725 64.4283 15.3682 5.5 4.0 167P CINEOS 2001 05 17.8567 11.821981 0.273604 344.7716 295.7768 19.0897 9.5 2.0 169P NEAT 2009 11 30.3045 0.607747 0.766797 217.9614 176.1885 11.2999 16.0 2.0 172P Yeung 2008 10 13.7322 2.241936 0.362978 179.3842 39.9408 11.5188 13.0 4.0 173P Mueller 2008 05 16.9608 4.212603 0.260768 29.6554 100.5442 16.4937 7.5 4.0 174P Echeclus 2015 04 18.7378 5.826575 0.458018 162.6014 173.3902 4.3410 9.5 2.0 176P LINEAR 2011 07 02.6532 2.575169 0.193455 35.9710 346.5055 0.2378 15.0 2.0 179P Jedicke 2007 12 03.2501 4.086275 0.308873 295.4755 115.8466 19.8716 2.5 8.0 180P NEAT 2008 05 27.0513 2.471904 0.357238 95.0969 84.7409 16.9036 11.0 4.0 183P Korlevic-Juric 2008 05 07.2976 3.893296 0.134922 161.4384 5.8488 18.7369 12.5 2.0 186P Garradd 2008 04 22.9447 4.279584 0.125987 282.6454 327.7730 28.8684 7.5 4.0 187P LINEAR 2008 10 10.9079 3.695969 0.172528 132.6223 111.9998 13.7197 9.0 4.0 195P Hill 2009 01 20.6605 4.438228 0.314778 249.5837 243.2270 36.3621 8.5 4.0 197P LINEAR 2008 05 18.8811 1.060968 0.629702 188.7857 66.3896 25.5499 16.5 2.0 199P Shoemaker 2009 04 09.5981 2.934523 0.508860 191.9153 92.8785 24.7359 10.0 4.0 200P Larsen 2008 08 25.6681 3.272834 0.333581 133.8235 234.8143 12.1181 9.0 4.0 202P Scotti 2009 02 06.9677 2.526771 0.331034 255.5499 194.5665 2.1852 13.5 4.0 203P Korlevic 2010 02 08.1941 3.182125 0.315069 154.5441 290.5643 2.9759 14.5 2.0 209P LINEAR 2009 04 16.0178 0.913341 0.689136 149.7739 66.3994 19.1490 17.0 2.0 211P Hill 2009 05 07.6857 2.361882 0.337661 4.3694 117.2929 18.8712 12.5 4.0 213P Van Ness 2011 06 15.9957 2.123421 0.379743 3.2302 312.6870 10.2397 10.5 4.0 214P LINEAR 2009 01 05.6366 1.844431 0.488523 190.3049 348.2567 15.2137 13.0 4.0 215P NEAT 2010 06 07.8888 3.213460 0.200867 222.4199 75.4441 12.7911 11.0 4.0 217P LINEAR 2009 09 08.9694 1.224011 0.689552 246.7486 125.6211 12.8815 12.0 4.0 218P LINEAR 2009 06 22.3385 1.701555 0.490467 10.6412 226.7302 18.1506 16.0 4.0 219P LINEAR 2010 03 05.8345 2.364293 0.353187 107.7758 231.0714 11.5201 11.0 4.0 220P McNaught 2009 12 15.4321 1.548625 0.502681 180.7575 150.1181 8.1327 15.0 4.0 221P LINEAR 2009 01 24.7553 1.782664 0.487396 39.6559 229.9911 11.4217 14.5 4.0 222P LINEAR 2009 09 01.0990 0.780228 0.727031 345.4383 7.1181 5.1478 20.0 4.0 223P Skiff 2010 08 14.7247 2.419237 0.417609 37.9245 346.8278 27.0542 12.0 4.0 224P LINEAR-NEAT 2010 01 31.8300 1.989595 0.416379 16.0912 40.5285 13.4361 15.5 4.0 225P LINEAR 2009 08 25.5346 1.314777 0.639243 3.8322 14.2241 21.3964 18.0 4.0 226P Pigott-LINEAR-Kowalski 2009 05 11.2515 1.769207 0.529986 340.9630 54.0678 44.0212 12.5 4.0 227P Catalina-LINEAR 2010 09 03.7223 1.794826 0.499869 90.1393 49.8858 6.5248 16.5 2.0 228P LINEAR 2011 08 24.6821 3.430204 0.176412 114.9119 31.0709 7.9160 14.5 2.0 C/1995 O1 Hale-Bopp 1997 03 31.3492 0.908752 0.994949 130.5577 282.7984 89.2741 -2.0 4.0 P/1996 A1 Jedicke 2014 11 25.9911 4.076772 0.434895 223.9140 248.9746 6.6116 7.0 4.0 P/1998 U3 Jager 2014 03 17.5524 2.154515 0.646988 180.9435 303.4905 19.0736 6.5 4.0 P/1998 U4 Spahr 2012 04 20.3651 3.851770 0.311812 251.6693 181.3875 31.6530 8.0 4.0 P/1998 VS24 LINEAR 2008 05 25.1718 3.422699 0.242896 244.4575 159.1698 5.0267 13.0 2.0 P/1999 U3 LINEAR 2010 07 18.4616 1.921420 0.611471 110.1262 305.9864 20.8867 13.5 4.0 P/1999 XB69 LINEAR 2009 07 25.8987 1.652056 0.630821 220.3234 256.0484 11.3058 17.5 2.0 P/1999 XN120 Catalina 2008 11 12.3926 3.303667 0.211209 161.5865 285.4414 5.0250 13.5 2.0 P/2000 Y3 Scotti 2012 01 06.1385 3.935693 0.204279 90.3891 354.3342 2.2676 9.0 4.0 P/2001 R6 LINEAR-Skiff 2010 03 26.1195 2.178615 0.477875 308.4436 67.3328 17.3853 13.0 4.0 P/2002 Q1 Van Ness 2009 03 20.9758 1.551434 0.563929 185.0407 173.9937 36.2802 13.0 4.0 C/2002 VQ94 LINEAR 2006 02 06.2494 6.796477 0.963844 100.0490 34.9913 70.5828 9.5 2.0 P/2002 X2 NEAT 2010 10 04.7463 2.127361 0.449987 351.7898 75.0111 23.5326 12.0 4.0 P/2003 CP7 LINEAR-NEAT 2011 05 17.7670 3.031948 0.246258 42.6131 133.0991 12.3290 14.5 2.0 P/2003 HT15 LINEAR 2013 03 17.9550 2.688217 0.418040 124.2324 81.4461 27.6479 14.0 2.0 C/2003 WT42 LINEAR 2006 04 09.5856 5.187108 0.999085 92.3961 48.4378 31.4442 11.5 2.0 P/2004 A1 LONEOS 2004 09 03.9911 5.486909 0.310081 21.8410 124.9744 10.5515 6.5 4.0 C/2004 B1 LINEAR 2006 02 07.5561 1.608429 1.001207 328.0408 272.8732 114.0880 10.5 2.0 C/2004 D1 NEAT 2006 02 09.7505 4.972244 0.998209 75.4933 62.2350 45.5753 11.5 2.0 P/2004 F3 NEAT 2013 01 29.1869 2.873608 0.285649 176.4275 78.8178 15.9778 9.0 4.0 P/2004 FY140 LINEAR 2004 07 31.5664 4.110941 0.166943 239.4604 327.1793 2.1266 12.5 2.0 C/2005 EL173 LONEOS 2007 03 05.0280 3.888912 1.001540 261.4873 344.8129 130.6735 11.5 2.0 P/2005 JQ5 Catalina 2009 12 28.8497 0.823087 0.694235 222.7430 95.8324 5.6954 17.5 4.0 P/2005 L1 McNaught 2013 11 23.2160 3.150444 0.208535 149.9551 138.3037 7.7358 9.5 4.0 C/2005 L3 McNaught 2008 01 16.9372 5.594782 1.000916 47.1949 288.7575 139.4477 4.0 4.0 P/2005 RV25 LONEOS-Christensen 2006 11 04.5807 3.600540 0.166660 191.2061 246.8783 9.8876 9.5 4.0 P/2005 S2 Skiff 2006 06 30.7418 6.398015 0.198633 229.9520 161.2031 3.1410 7.5 4.0 C/2005 S4 McNaught 2007 07 19.9712 5.854285 0.999437 31.5871 318.2889 107.9589 5.0 4.0 P/2005 SB216 LONEOS 2007 02 10.7563 3.811449 0.463597 83.3928 1.6744 24.1182 12.0 2.0 C/2006 E1 McNaught 2007 01 07.9768 6.044566 1.003313 232.8998 95.0508 83.1815 6.0 4.0 P/2006 F1 Kowalski 2008 02 18.7828 4.120268 0.118673 186.7775 124.7595 21.2750 8.0 4.0 C/2006 K1 McNaught 2007 07 20.9332 4.426379 1.002992 296.4795 72.1128 53.8492 7.5 4.0 C/2006 K4 NEAT 2007 11 29.6643 3.189702 0.998691 233.6735 116.6117 111.3342 6.0 4.0 C/2006 OF2 Broughton 2008 09 15.7611 2.431263 1.001474 95.6209 318.5064 30.1680 5.5 4.0 C/2006 Q1 McNaught 2008 07 03.7527 2.763578 0.999146 344.3644 199.5564 59.0539 5.0 4.0 C/2006 S3 LONEOS 2012 04 16.6943 5.135503 1.000994 140.0641 38.3385 166.0291 2.0 4.0 C/2006 S5 Hill 2007 12 09.5994 2.627162 0.972396 182.0596 281.5207 10.1323 8.0 4.0 C/2006 U6 Spacewatch 2008 06 05.5682 2.497669 0.999087 276.5942 180.1828 84.8981 8.0 4.0 C/2006 V1 Catalina 2007 11 24.4362 2.669521 0.984850 253.2847 335.5236 31.3789 8.0 4.0 C/2006 W3 Christensen 2009 07 06.6278 3.126094 1.000373 133.5167 113.5828 127.0548 5.0 4.0 C/2007 B2 Skiff 2008 08 21.1140 2.977691 0.996346 206.1423 14.8208 27.4979 6.0 4.0 C/2007 D1 LINEAR 2007 06 15.5271 8.788560 0.994758 339.9941 171.0936 41.5474 3.5 4.0 C/2007 G1 LINEAR 2008 11 16.3509 2.647468 1.001664 224.0007 79.0023 88.3268 5.5 4.0 P/2007 H1 McNaught 2007 08 18.1020 2.282143 0.378390 202.7364 144.3643 11.8749 10.0 4.0 C/2007 K3 Siding Spring 2008 04 21.5510 2.051661 1.000430 23.5820 263.2543 16.2974 9.5 4.0 C/2007 M1 McNaught 2008 08 12.7555 7.476212 0.995920 52.7011 326.8070 139.7209 6.0 4.0 C/2007 M2 Catalina 2008 12 08.5384 3.541002 0.998444 220.6707 357.2910 80.9543 8.0 4.0 C/2007 N3 Lulin 2009 01 10.6469 1.211828 0.999998 136.8603 338.5489 178.3738 6.5 4.0 C/2007 Q3 Siding Spring 2009 10 07.2644 2.251633 1.000208 2.0880 149.4132 65.6502 4.5 4.0 P/2007 R1 Larson 2007 08 25.0157 4.354467 0.278517 175.3125 181.6407 7.8742 8.0 4.0 C/2007 S2 Lemmon 2008 09 13.6677 5.556688 0.556354 210.3846 296.2218 16.8563 6.5 4.0 C/2007 T5 Gibbs 2008 05 23.8151 4.048095 0.912302 34.3636 109.8298 45.6152 8.0 4.0 C/2007 U1 LINEAR 2008 08 07.1864 3.331797 1.001143 1.1232 50.1810 157.8021 9.0 4.0 C/2007 VO53 Spacewatch 2010 04 26.4259 4.842675 0.999774 75.0226 59.7405 86.9914 7.0 4.0 C/2007 W1 Boattini 2008 06 24.8060 0.850607 0.999957 306.5755 334.5144 9.8888 9.5 4.0 C/2007 Y2 McNaught 2008 04 08.6250 4.212011 0.995616 257.7595 303.4693 98.4949 9.0 4.0 C/2008 A1 McNaught 2008 09 29.0928 1.073510 1.000346 348.4764 277.8961 82.5438 6.5 4.0 P/2008 CL94 Lemmon 2006 06 23.3354 5.425919 0.119666 81.4037 33.4527 8.3530 8.0 4.0 C/2008 E1 Catalina 2008 08 11.7607 4.828423 0.548696 269.9825 189.0071 35.0439 7.0 4.0 C/2008 E3 Garradd 2008 08 02.7267 5.532015 0.998057 218.1480 105.6817 105.0774 6.0 4.0 C/2008 FK75 Lemmon-Siding Spring 2010 09 29.1009 4.511274 1.002965 80.4009 218.2614 61.1718 5.0 4.0 C/2008 G1 Gibbs 2009 01 12.2418 3.989438 0.988586 63.7571 215.9177 72.8479 9.5 4.0 C/2008 J1 Boattini 2008 07 13.3134 1.724820 0.989915 68.1475 273.4225 61.7635 10.0 4.0 P/2008 J2 Beshore 2008 03 20.3501 2.399428 0.310004 131.4777 98.1538 10.2519 9.0 4.0 P/2008 J3 McNaught 2009 03 10.8239 2.287364 0.412468 4.4463 9.8528 25.3990 12.0 4.0 C/2008 N1 Holmes 2009 09 25.9042 2.783608 0.997322 100.8185 357.4716 115.5209 9.0 4.0 P/2008 O2 McNaught 2009 04 21.8137 3.804004 0.152789 27.5013 325.8593 9.5184 9.0 4.0 C/2008 P1 Garradd 2009 07 22.9634 3.896266 1.001321 11.8694 357.6789 64.3137 7.0 4.0 C/2008 Q1 Maticic 2008 12 30.2172 2.959302 0.995385 104.4953 9.3043 118.6339 10.0 4.0 C/2008 Q3 Garradd 2009 06 23.1056 1.798191 0.999820 340.8627 219.7372 140.7079 10.0 4.0 C/2008 S3 Boattini 2011 06 05.0724 8.020098 1.000839 39.8102 54.9322 162.7015 4.0 4.0 P/2008 T1 Boattini 2008 02 26.8724 3.044674 0.281092 35.9885 291.7676 2.0829 11.0 4.0 C/2008 T2 Cardinal 2009 06 13.2364 1.202372 1.000102 215.8756 309.6784 56.3035 6.0 4.0 P/2008 WZ96 LINEAR 2009 01 23.9638 1.646320 0.509932 337.6473 59.1013 6.9574 13.5 4.0 P/2008 Y3 McNaught 2009 01 11.5904 4.433900 0.447374 238.2465 262.9165 38.8122 8.5 4.0 P/2009 B1 Boattini 2009 02 06.2457 2.426550 0.637662 128.6031 297.4344 22.2268 13.0 4.0 C/2009 B2 LINEAR 2009 03 07.3756 2.327340 0.944567 192.4929 18.8234 156.8750 12.5 4.0 C/2009 E1 Itagaki 2009 04 07.9216 0.599487 0.985045 48.9443 105.9645 127.4319 11.5 4.0 C/2009 F1 Larson 2009 06 25.8733 1.830584 0.982507 219.5797 357.9524 171.3757 15.0 4.0 C/2009 F2 McNaught 2009 11 14.2727 5.875201 0.983243 336.3592 214.0564 59.3585 6.0 4.0 C/2009 F4 McNaught 2011 12 31.3158 5.455070 1.003682 260.3517 53.5674 79.3367 3.0 4.0 C/2009 F5 McNaught 2008 11 04.7970 2.245115 0.971709 297.3562 219.0683 84.9973 10.0 4.0 C/2009 F6 Yi-SWAN 2009 05 07.4311 1.274083 0.997512 129.7685 278.6763 85.7605 6.0 4.0 C/2009 G1 STEREO 2009 04 16.5059 1.128933 0.997745 175.4547 120.6388 108.3098 9.0 4.0 C/2009 K2 Catalina 2010 02 07.5039 3.246389 0.997389 147.6901 123.8086 66.8209 10.0 4.0 C/2009 K3 Beshore 2011 01 09.266 3.90156 1.00000 251.413 0.032 146.680 8.5 4.0 C/2009 K4 Gibbs 2009 06 19.3669 1.549026 0.963334 127.4612 30.1201 34.8264 13.0 4.0 C/2009 K5 McNaught 2010 04 30.0188 1.422558 1.000911 66.1637 257.8531 103.8817 7.5 4.0 P/2009 L2 Yang-Gao 2009 05 21.7651 1.295796 0.621081 346.9670 259.2779 16.1568 15.0 4.0 C/2009 O2 Catalina 2010 03 24.2211 0.693200 0.997221 133.4932 310.2212 107.8591 11.0 4.0 P/2009 O3 Hill 2009 05 18.5747 2.449937 0.686636 154.5450 183.7644 16.2178 12.5 4.0 C/2009 O4 Hill 2010 01 01.2817 2.563791 1.000903 223.7321 172.9388 95.8292 10.0 4.0 C/2009 P1 Garradd 2011 12 25.0276 1.554686 0.999882 90.7059 325.8894 106.3370 4.0 4.0 C/2009 P2 Boattini 2010 02 10.6248 6.543868 1.001636 76.0493 60.3723 163.4536 6.0 4.0 P/2009 Q1 Hill 2009 07 03.8083 2.788798 0.496114 157.8435 174.0871 14.4382 11.5 4.0 P/2009 Q4 Boattini 2009 11 19.9300 1.320785 0.578943 320.0202 127.6676 10.9687 15.5 4.0 P/2009 Q5 McNaught 2009 09 08.5509 2.918549 0.608871 209.2689 160.1409 40.9058 10.0 4.0 P/2009 QG31 La Sagra 2009 10 10.3996 2.147831 0.398905 5.9191 346.2592 5.0554 14.0 4.0 C/2009 R1 McNaught 2010 07 02.6345 0.404913 1.000426 130.6999 322.6287 77.0248 8.0 4.0 P/2009 S1 Gibbs 2009 08 04.2044 2.440293 0.377942 224.0124 157.9816 26.1110 13.0 4.0 P/2009 S2 McNaught 2009 06 23.6355 2.203702 0.470272 230.3770 121.6126 28.4490 14.0 4.0 C/2009 S3 Lemmon 2011 12 10.343 6.48092 1.00000 129.636 225.114 60.385 6.5 4.0 P/2009 SK280 Spacewatch-Hill 2009 05 25.3176 4.200359 0.120360 328.4101 36.4048 16.8146 11.0 4.0 C/2009 T1 McNaught 2009 10 08.7613 6.222821 1.000000 282.5715 54.3637 89.9071 6.5 4.0 P/2009 T2 La Sagra 2010 01 12.8355 1.754749 0.768918 215.4675 215.9859 28.1048 14.0 4.0 C/2009 T3 LINEAR 2010 01 12.0318 2.281269 1.000000 32.4403 60.0939 148.7439 12.5 4.0 C/2009 U1 Garradd 2010 07 07.819 2.96357 1.00000 6.404 67.196 68.944 10.5 4.0 C/2009 U3 Hill 2010 03 20.067 1.41606 1.00000 77.573 49.334 51.482 13.0 4.0 P/2009 U4 McNaught 2009 09 09.0585 1.648563 0.674011 259.8736 55.7202 10.0903 14.0 4.0 C/2009 U5 Grauer 2010 07 14.924 6.04624 1.00000 25.997 121.179 25.551 7.0 4.0 P/2009 U6 LINEAR 2009 08 08.569 1.48324 0.56022 308.502 112.471 14.635 13.0 4.0 C/2009 W1 Hill 2009 06 26.522 2.46311 1.00000 18.740 54.303 14.413 11.5 4.0